Location: M�con, France
(46.3049°N, 4.8371°E)
Time: 10:44:18
(UTC+02:00)

Daily predictions for brighter satellites

Satellite Brightness Start Highest point End
(mag) Time Altitude Azimuth Time Altitude Azimuth Time Altitude Azimuth
USA 267 3.3 20:55:51 10° NE 21:02:24 68° SE 21:08:54 10° SW
Cosmos 1455 4.4 21:04:52 10° SW 21:08:01 29° WNW 21:11:12 10° NNW
Atlas Centaur 2 3.9 21:05:38 10° SSW 21:08:51 15° S 21:11:44 10° SSE
CENTAUR R/B 4.3 21:07:17 10° NW 21:14:07 32° NNE 21:21:53 10° E
Resurs 01 Rocket 1.8 21:10:27 10° SSE 21:14:45 54° ENE 21:19:05 10° N
Genesis I 3.0 21:14:28 10° NW 21:18:06 77° NE 21:21:44 10° SE
CZ-4 R/B 1.8 21:14:22 10° S 21:18:13 61° W 21:22:01 10° NNW
SL-27 R/B 4.2 21:16:28 10° NW 21:18:54 25° WSW 21:21:18 10° SSW
USA 281 3.7 21:14:19 10° SE 21:20:31 46° NE 21:26:43 10° NNW
CSL-04 Debris 4.2 21:15:45 10° SSE 21:21:10 74° ENE 21:26:39 10° N
SL-4 R/B 2.4 21:18:26 10° WNW 21:22:01 46° NNE 21:25:23 10° E
Feng Yun 1-1 Rocket 4.3 21:16:37 10° SSE 21:22:12 81° ENE 21:27:59 10° NNW
ATLAS 5 CENTAUR R/B 3.2 21:20:09 10° WSW 21:23:10 29° NW 21:26:32 10° NNE
Cosmos 2151 Rocket 3.7 21:19:16 10° S 21:23:33 52° E 21:27:53 10° NNE
BlueWalker 3 2.0 21:20:10 10° WSW 21:23:59 81° NNW 21:27:50 10° ENE
Cosmos 2227 Rocket 3.4 21:19:05 10° N 21:23:59 29° NE 21:28:41 11° ESE
Cosmos 1934 Rocket 4.3 21:19:36 10° N 21:25:38 50° ENE 21:31:42 10° SSE
ATLAS CENTAUR R/B 3.1 21:23:29 10° N 21:26:10 18° NE 21:28:56 10° E
NOSS 3-1 (A) 3.3 21:21:33 10° SW 21:26:28 75° NW 21:32:29 10° NE
Terra 3.7 21:24:51 10° E 21:27:29 15° ENE 21:30:07 10° NNE
CSL-04 Rocket 3.7 21:22:53 10° SSE 21:28:22 78° ENE 21:33:49 10° NNW
Cosmos 1697 Rocket 3.8 21:26:32 10° SSE 21:30:53 23° ESE 21:35:14 10° NE
SPOT 1/Viking Rocket 4.1 21:25:53 10° S 21:31:02 63° WSW 21:36:14 10° NNW
Cosmos 44 3.7 21:26:18 10° SSW 21:31:31 51° ESE 21:36:41 10° NE
ERS-1 Rocket 4.5 21:28:22 11° ESE 21:31:48 20° ENE 21:35:26 10° NNE
SPOT 5 4.0 21:29:29 11° SE 21:33:49 32° ENE 21:38:21 10° N
USA 229 DEB 3.6 21:30:00 10° SSW 21:35:51 52° ESE 21:42:17 10° NE
USA 229 3.6 21:30:05 10° SSW 21:35:57 52° ESE 21:42:22 10° NE
Cosmos 2098 Rocket 4.2 21:31:45 10° SSW 21:35:59 43° W 21:39:31 10° N
USA 234 3.3 21:32:14 12° ESE 21:38:28 81° NNE 21:45:01 10° NW
PSLV R/B 3.8 21:36:40 10° S 21:40:24 80° WSW 21:44:12 10° NNW
Cosmos 1656 3.6 21:35:12 10° SSW 21:40:42 66° ESE 21:46:10 10° NNE
Okean 2 Rocket 3.1 21:40:19 10° S 21:44:48 82° E 21:49:19 10° N
CARTOSAT-1 3.7 21:44:58 10° S 21:49:14 75° WSW 21:53:31 10° NNW
Cosmos 2297 Rocket 2.2 21:46:38 10° NNW 21:52:19 75° ENE 21:56:53 16° SSE
ATLAS 3B R/B 3.6 21:46:23 10° WSW 21:53:24 58° NW 22:00:57 10° NE
Cosmos 1455 Rocket 4.0 21:54:37 19° SE 21:56:43 28° E 22:00:28 10° NNE
Okean 1 Rocket 3.0 21:55:31 10° S 21:59:57 74° E 22:04:26 10° NNE
Tiangong -1.3 21:59:12 10° WSW 22:02:01 33° S 22:02:42 29° SSE
Cosmos 1437 Rocket 3.4 22:04:48 10° N 22:08:31 38° ENE 22:09:57 28° ESE
IRS-1C Rocket 4.2 22:04:51 19° SE 22:08:33 61° ENE 22:13:46 10° N
USA 186 4.4 22:08:24 10° SW 22:10:29 17° W 22:12:37 10° NW
Cosmos 1535 Rocket 4.5 22:04:12 10° N 22:10:36 78° E 22:16:04 14° SSE
Cosmos 2219 4.0 22:06:39 10° NNW 22:11:52 36° NE 22:14:49 22° ESE
CZ-4C R/B 2.8 22:09:54 10° NNE 22:13:18 89° W 22:16:40 10° SSW
Iridium 4 Rocket 3.7 22:08:04 10° S 22:13:41 81° E 22:19:34 10° N
Iridium 2 3.7 22:10:51 10° NNW 22:13:43 52° W 22:15:43 17° SSW
Cosmos 2263 Rocket 3.5 22:09:02 10° N 22:13:47 27° NE 22:16:39 18° E
Aureole 1 Rocket 2.9 22:13:15 10° N 22:16:07 37° ENE 22:16:38 34° E
Okean-O 2.9 22:17:03 15° S 22:20:35 65° WSW 22:25:00 10° NNW
Landsat 4 3.6 22:21:07 40° SE 22:22:05 56° ENE 22:25:33 10° N
Spot 2 Rocket 4.0 22:22:02 28° ESE 22:24:09 43° ENE 22:28:54 10° N
Cosmos 1898 Rocket 4.1 22:19:16 10° N 22:24:16 42° ENE 22:26:23 29° ESE
Cosmos 292 Rocket 4.5 22:21:57 10° N 22:26:25 38° ENE 22:28:00 29° ESE
CZ-4C R/B 3.0 22:19:33 10° NW 22:26:43 79° NE 22:32:02 26° SE
Okean O Rocket 3.5 22:27:00 10° SSW 22:30:41 27° W 22:34:26 10° NW
MOS 1 Rocket 4.3 22:29:57 25° E 22:30:46 26° ENE 22:34:28 10° N
IRS-1A Rocket 4.3 22:28:25 23° SSE 22:32:13 85° ENE 22:38:05 10° NNW
BREEZE-M R/B 2.5 22:29:53 10° WNW 22:31:57 43° SW 22:31:57 43° SW
COSMOS 2455 3.1 22:30:47 10° NW 22:36:45 66° WSW 22:40:11 26° SSE
Cosmos 1763 Rocket 3.5 22:32:42 10° SSW 22:37:47 83° WNW 22:42:58 10° NNE
Cosmos 1626 Rocket 4.4 22:35:13 10° N 22:39:13 32° ENE 22:39:41 31° E
USA 245 3.7 22:37:10 34° SSE 22:39:20 76° ENE 22:43:31 10° N
Cosmos 2173 Rocket 4.5 22:37:32 10° N 22:43:38 44° ENE 22:45:50 33° ESE
Ariane Rocket 3.0 22:42:22 38° SE 22:44:10 64° ENE 22:49:11 10° N
USA 267 4.1 22:38:59 10° NE 22:45:17 51° NNW 22:51:34 10° W
Cosmos 1605 Rocket 4.2 22:40:01 10° NNW 22:46:22 70° W 22:50:56 19° S
USA 81 4.1 22:44:38 38° SSE 22:46:23 56° E 22:51:32 10° NNE
Cosmos 540 Rocket 3.3 22:43:27 10° SSW 22:48:33 90° NE 22:53:41 10° NNE
Spot 1 4.5 22:45:34 10° NNE 22:49:52 43° E 22:49:52 43° E
NOSS 3-2 (A) 4.4 22:42:55 10° NW 22:49:58 53° NE 22:54:34 27° ESE
Cosmos 990 Rocket 4.3 22:45:13 10° NNW 22:50:19 59° WSW 22:52:42 30° S
Resurs 01 Rocket 4.2 22:48:40 10° SW 22:51:32 17° W 22:54:23 10° NW
Cosmos 405 Rocket 3.2 22:52:11 26° SW 22:54:02 55° WNW 22:57:42 10° N
Meteor 2-3 Rocket 4.3 22:49:01 10° N 22:54:23 41° ENE 22:55:43 35° ESE
Cosmos 1544 Rocket 3.9 22:58:35 47° E 22:58:35 47° E 23:02:30 10° NNE
Cosmos 1153 Rocket 4.4 22:52:16 10° N 22:58:36 89° ENE 23:01:27 35° S
SL-4 R/B 2.4 22:57:25 10° WNW 23:00:18 41° WSW 23:00:18 41° WSW
Cosmos 2228 4.0 23:03:35 31° ENE 23:03:35 31° ENE 23:06:27 10° NNE
BlueWalker 3 3.7 22:59:10 10° WNW 23:02:37 31° N 23:05:29 13° NE
ATLAS CENTAUR R/B 1.3 23:00:30 10° NW 23:04:16 65° SW 23:04:23 65° SW
Terra 1.8 23:03:09 47° S 23:04:28 78° WSW 23:09:13 10° NNW
USA 281 4.1 23:00:31 18° SSW 23:05:02 41° WSW 23:11:12 10° NW
CENTAUR R/B 3.3 22:57:51 10° NW 23:06:06 78° NE 23:10:32 35° SE
Cosmos 1980 Rocket 2.1 23:05:13 43° S 23:06:54 63° ESE 23:12:29 10° NNE
Cosmos 372 Rocket 3.9 23:01:39 10° NNW 23:06:55 77° ENE 23:08:04 55° SE
Cosmos 1892 Rocket 4.4 23:02:51 10° NNW 23:06:58 44° W 23:08:33 31° SW
Cosmos 2227 Rocket 2.6 23:02:49 10° NW 23:08:22 55° WSW 23:10:29 35° SSW
ERS-1 Rocket 3.3 23:08:18 37° SSW 23:10:07 60° W 23:15:06 10° NNW
SPOT 5 4.1 23:08:38 21° SSW 23:11:42 40° W 23:16:35 10° NNW
Cosmos 1697 Rocket 3.2 23:08:48 10° SW 23:14:23 59° WNW 23:20:01 10° NNE
Cosmos 2016 Rocket 4.3 23:08:36 10° N 23:14:30 46° ENE 23:15:38 42° ESE
Cosmos 1802 Rocket 4.2 23:09:09 10° N 23:15:21 56° ENE 23:16:49 46° ESE
Cosmos 468 Rocket 4.5 23:10:33 10° SW 23:15:37 58° WNW 23:20:49 10° NNE
Intercosmos 25 3.5 23:16:08 10° N 23:19:42 61° N 23:19:42 61° N
Cosmos 2058 3.2 23:17:26 10° NNW 23:21:22 55° W 23:21:34 55° WSW
USA 234 4.3 23:19:34 27° SSW 23:21:52 33° SW 23:27:42 10° WNW
Cosmos 1602 Rocket 4.0 23:18:59 10° N 23:22:50 50° NE 23:22:50 50° NE
Cosmos 841 Rocket 3.3 23:22:25 62° S 23:23:17 82° ESE 23:28:26 10° NNE
Cosmos 1727 Rocket 4.1 23:20:57 27° SSW 23:24:31 72° W 23:30:47 10° N
Cosmos 1758 Rocket 3.8 23:20:07 10° N 23:24:16 60° ENE 23:24:16 60° ENE
Cosmos 2100 Rocket 3.9 23:19:52 10° N 23:26:15 89° W 23:28:04 50° S
Okean 1-7 Rocket 3.7 23:25:05 10° N 23:29:20 65° NE 23:29:20 65° NE
Cosmos 1606 3.9 23:31:12 35° NNE 23:31:12 35° NNE 23:33:24 10° NNE
Cosmos 1000 Rocket 4.4 23:28:32 46° S 23:30:30 90° W 23:36:41 10° N
Meteor 2-13 Rocket 4.5 23:31:16 39° SSW 23:33:41 78° W 23:39:52 10° N
Cosmos 2297 Rocket 4.3 23:32:01 10° WNW 23:35:40 18° W 23:38:43 12° SW
Cosmos 2123 Rocket 3.9 23:36:15 59° SSE 23:37:20 71° E 23:43:39 10° NNE
Meteor 2-8 Rocket 4.4 23:33:32 10° N 23:39:42 66° ENE 23:40:30 60° ESE
SPOT 3 Rocket 4.3 23:41:51 39° SW 23:42:59 45° W 23:47:57 10° NNW
ARIANE 5 R/B 3.6 23:45:51 39° NE 23:45:51 39° NE 23:49:25 10° N
Meteor 1-27 4.3 23:46:02 56° E 23:46:02 56° E 23:51:10 10° NNE
Cosmos 2369 3.6 23:45:29 57° SW 23:46:43 84° WNW 23:52:24 10° NNE
Cosmos 1937 Rocket 3.9 23:43:37 10° NNW 23:48:48 54° WSW 23:49:15 52° SW
Landsat 5 4.3 23:50:12 10° N 23:54:08 45° WNW 23:54:08 45° WNW
H-2A R/B 4.1 23:55:48 25° NNE 23:55:48 25° NNE 23:57:50 10° N
